Location: Bruch
(44.2051°N, 0.4120°E)
Time: 04:54:53
(UTC+00:00)

ATLAS 2AS CENTAUR R/B - Pass Details

Date: 29 November 2020
Orbit: 943 x 1268 km, 63.7° (Epoch: 22 January)

Event Time Altitude Azimuth Distance (km) Brightness Sun altitude
Exits shadow 04:15:37 33° 196° (SSW) 2,001 3.9 -30.9°
Maximum altitude 04:19:34 71° 121° (ESE) 1,335 3.2 -30.2°
Drops below altitude 10° 04:27:24 10° 40° (NE) 3,230 5.6 -28.8°
Sets 04:30:10 0° 39° (NE) 4,174 6.3 -28.3°
